This is the latest recevied weather packets stored in our database for station/object DB0ROB-10. If no packets are shown the sender has not sent any weather packets the latest 10 day(s).
| Time | Temp. | Humidity | Pressure | Rain* | Wind** | Luminosity | Snow |
|---|---|---|---|---|---|---|---|
| 1777821388 | 20.56° C | 32% | 1014 hPa | - | - | - | - |
| 1777820487 | 22.22° C | 30% | 1014 hPa | - | - | - | - |
| 1777819587 | 21.11° C | 30% | 1014 hPa | - | - | - | - |
| 1777818686 | 21.11° C | 30% | 1014.2 hPa | - | - | - | - |
| 1777817785 | 21.11° C | 30% | 1014.2 hPa | - | - | - | - |
| 1777816884 | 21.67° C | 28% | 1014.3 hPa | - | - | - | - |
| 1777815989 | 21.67° C | 28% | 1014.3 hPa | - | - | - | - |
| 1777815089 | 23.33° C | 26% | 1014.3 hPa | - | - | - | - |
| 1777814189 | 21.67° C | 28% | 1014.5 hPa | - | - | - | - |
| 1777813289 | 23.33° C | 26% | 1014.8 hPa | - | - | - | - |
| 1777812388 | 23.89° C | 24% | 1014.8 hPa | - | - | - | - |
| 1777811487 | 22.22° C | 26% | 1015.1 hPa | - | - | - | - |
| 1777810587 | 22.22° C | 27% | 1015.2 hPa | - | - | - | - |
| 1777809687 | 20.56° C | 29% | 1015.2 hPa | - | - | - | - |
| 1777808787 | 21.11° C | 28% | 1015.3 hPa | - | - | - | - |
| 1777807887 | 21.11° C | 28% | 1015.4 hPa | - | - | - | - |
| 1777806986 | 20° C | 30% | 1015.5 hPa | - | - | - | - |
| 1777806086 | 20.56° C | 29% | 1015.6 hPa | - | - | - | - |
| 1777805186 | 20.56° C | 29% | 1015.7 hPa | - | - | - | - |
| 1777804286 | 19.44° C | 30% | 1015.9 hPa | - | - | - | - |
| 1777803384 | 20.56° C | 30% | 1015.7 hPa | - | - | - | - |
| 1777802484 | 19.44° C | 32% | 1015.9 hPa | - | - | - | - |
| 1777801584 | 20° C | 30% | 1015.9 hPa | - | - | - | - |
| 1777800684 | 19.44° C | 31% | 1016.1 hPa | - | - | - | - |
| 1777799784 | 18.33° C | 32% | 1016.3 hPa | - | - | - | - |
* Rain since midnight (hover to see other rain measurements)
** Current wind speed in m/s (hover to see current wind gust speed)